TimeEST,TemperatureF,Dew PointF,Humidity,Sea Level PressureIn,VisibilityMPH,Wind Direction,Wind SpeedMPH,Gust SpeedMPH,PrecipitationIn,Events,Conditions,WindDirDegrees,DateUTC
12:13 AM,27.0,23.5,87,30.13,10.0,Calm,Calm,-,N/A,,Clear,0,2012-11-06 05:13:00
12:33 AM,25.3,22.1,87,30.13,10.0,Calm,Calm,-,N/A,,Clear,0,2012-11-06 05:33:00
12:54 AM,23.9,21.0,89,30.13,10.0,Calm,Calm,-,N/A,,Clear,0,2012-11-06 05:54:00
1:13 AM,23.4,20.8,90,30.13,10.0,Calm,Calm,-,N/A,,Scattered Clouds,0,2012-11-06 06:13:00
1:34 AM,23.5,21.2,91,30.13,10.0,Calm,Calm,-,N/A,,Clear,0,2012-11-06 06:34:00
1:54 AM,23.4,21.0,91,30.12,10.0,Calm,Calm,-,N/A,,Clear,0,2012-11-06 06:54:00
2:13 AM,22.6,20.3,91,30.12,10.0,Calm,Calm,-,N/A,,Clear,0,2012-11-06 07:13:00
2:34 AM,23.5,21.4,91,30.11,10.0,Calm,Calm,-,N/A,,Clear,0,2012-11-06 07:34:00
2:54 AM,20.7,18.5,91,30.11,10.0,Calm,Calm,-,N/A,,Clear,0,2012-11-06 07:54:00
3:13 AM,20.8,18.5,91,30.10,10.0,Calm,Calm,-,N/A,,Clear,0,2012-11-06 08:13:00
3:34 AM,23.4,21.2,91,30.10,10.0,Calm,Calm,-,N/A,,Clear,0,2012-11-06 08:34:00
3:54 AM,23.7,21.4,91,30.10,10.0,Calm,Calm,-,N/A,,Clear,0,2012-11-06 08:54:00
4:13 AM,21.0,18.7,91,30.09,10.0,Calm,Calm,-,N/A,,Clear,0,2012-11-06 09:13:00
4:34 AM,20.3,18.0,91,30.08,10.0,Calm,Calm,-,N/A,,Clear,0,2012-11-06 09:34:00
4:54 AM,21.0,18.7,91,30.08,10.0,ESE,3.5,-,N/A,,Clear,110,2012-11-06 09:54:00
5:13 AM,23.0,20.7,91,30.07,10.0,ESE,5.8,-,N/A,,Clear,120,2012-11-06 10:13:00
5:34 AM,24.3,21.6,89,30.07,10.0,ESE,3.5,-,N/A,,Clear,120,2012-11-06 10:34:00
5:54 AM,24.3,21.2,88,30.07,10.0,Calm,Calm,-,N/A,,Clear,0,2012-11-06 10:54:00
6:13 AM,23.0,20.3,89,30.07,7.0,Calm,Calm,-,N/A,,Clear,0,2012-11-06 11:13:00
6:34 AM,21.9,19.4,90,30.07,10.0,ESE,3.5,-,N/A,,Clear,110,2012-11-06 11:34:00
6:53 AM,21.9,19.2,89,30.07,7.0,Calm,Calm,-,N/A,,Clear,0,2012-11-06 11:53:00
7:13 AM,20.7,18.3,91,30.08,7.0,Calm,Calm,-,N/A,,Clear,0,2012-11-06 12:13:00
7:34 AM,19.9,17.4,90,30.08,7.0,Calm,Calm,-,N/A,,Scattered Clouds,0,2012-11-06 12:34:00
7:53 AM,21.4,18.7,89,30.08,7.0,Calm,Calm,-,N/A,,Overcast,0,2012-11-06 12:53:00
8:13 AM,24.3,21.6,89,30.08,7.0,Calm,Calm,-,N/A,,Overcast,0,2012-11-06 13:13:00
8:34 AM,26.8,24.4,91,30.08,7.0,Calm,Calm,-,N/A,,Overcast,0,2012-11-06 13:34:00
8:53 AM,27.7,25.3,91,30.08,7.0,ESE,3.5,-,N/A,,Overcast,110,2012-11-06 13:53:00
9:14 AM,29.3,26.4,89,30.07,10.0,ESE,3.5,-,N/A,,Overcast,110,2012-11-06 14:14:00
9:34 AM,32.0,28.0,85,30.07,10.0,SE,5.8,-,N/A,,Scattered Clouds,140,2012-11-06 14:34:00
9:53 AM,34.3,27.7,77,30.06,10.0,SSE,6.9,-,N/A,,Clear,150,2012-11-06 14:53:00
10:14 AM,35.4,27.9,74,30.06,10.0,SSE,5.8,-,N/A,,Scattered Clouds,160,2012-11-06 15:14:00
10:33 AM,36.3,28.6,74,30.06,10.0,SE,6.9,-,N/A,,Overcast,140,2012-11-06 15:33:00
10:53 AM,37.0,29.1,73,30.05,10.0,ESE,5.8,-,N/A,,Overcast,120,2012-11-06 15:53:00
11:14 AM,39.6,28.6,65,30.05,10.0,SSE,6.9,-,N/A,,Overcast,150,2012-11-06 16:14:00
11:33 AM,38.8,27.9,65,30.04,10.0,SE,9.2,-,N/A,,Mostly Cloudy,130,2012-11-06 16:33:00
11:54 AM,40.5,28.4,62,30.03,10.0,ESE,8.1,-,N/A,,Scattered Clouds,120,2012-11-06 16:54:00
12:13 PM,41.4,27.3,57,30.02,10.0,South,10.4,-,N/A,,Clear,170,2012-11-06 17:13:00
12:33 PM,41.0,27.1,58,30.01,10.0,SE,8.1,-,N/A,,Mostly Cloudy,140,2012-11-06 17:33:00
12:54 PM,40.6,27.0,58,30.00,10.0,SE,8.1,-,N/A,,Mostly Cloudy,140,2012-11-06 17:54:00
1:13 PM,41.4,27.1,57,29.99,10.0,SE,6.9,-,N/A,,Mostly Cloudy,140,2012-11-06 18:13:00
1:33 PM,41.7,27.1,56,29.99,10.0,SSE,8.1,-,N/A,,Overcast,150,2012-11-06 18:33:00
1:54 PM,41.5,26.8,56,29.98,10.0,SE,9.2,-,N/A,,Mostly Cloudy,130,2012-11-06 18:54:00
2:13 PM,42.6,27.0,54,29.98,10.0,SSE,9.2,16.1,N/A,,Mostly Cloudy,150,2012-11-06 19:13:00
2:33 PM,42.6,26.8,54,29.98,10.0,SSE,8.1,-,N/A,,Mostly Cloudy,160,2012-11-06 19:33:00
2:54 PM,43.5,26.1,50,29.97,10.0,South,6.9,-,N/A,,Scattered Clouds,190,2012-11-06 19:54:00
3:13 PM,42.1,25.9,53,29.96,10.0,South,8.1,-,N/A,,Scattered Clouds,170,2012-11-06 20:13:00
3:33 PM,43.0,26.2,52,29.96,10.0,ESE,9.2,-,N/A,,Clear,120,2012-11-06 20:33:00
3:54 PM,41.4,25.3,53,29.95,10.0,SE,6.9,-,N/A,,Clear,140,2012-11-06 20:54:00
4:13 PM,41.2,26.1,55,29.95,10.0,SSE,3.5,-,N/A,,Mostly Cloudy,160,2012-11-06 21:13:00
4:33 PM,41.4,25.9,54,29.95,10.0,SSE,4.6,-,N/A,,Mostly Cloudy,160,2012-11-06 21:33:00
4:54 PM,40.8,26.2,56,29.95,10.0,Calm,Calm,-,N/A,,Scattered Clouds,0,2012-11-06 21:54:00
5:13 PM,39.4,26.6,60,29.95,10.0,ESE,3.5,-,N/A,,Scattered Clouds,110,2012-11-06 22:13:00
5:33 PM,38.3,26.6,63,29.95,10.0,SE,3.5,-,N/A,,Scattered Clouds,130,2012-11-06 22:33:00
5:54 PM,37.4,26.4,65,29.95,10.0,ESE,3.5,-,N/A,,Scattered Clouds,110,2012-11-06 22:54:00
6:13 PM,37.9,27.0,65,29.95,10.0,ESE,3.5,-,N/A,,Mostly Cloudy,120,2012-11-06 23:13:00
6:33 PM,38.5,27.3,64,29.96,10.0,ESE,4.6,-,N/A,,Overcast,120,2012-11-06 23:33:00
6:54 PM,38.1,27.0,64,29.96,10.0,ESE,3.5,-,N/A,,Overcast,110,2012-11-06 23:54:00
7:13 PM,37.9,27.3,66,29.96,10.0,East,5.8,-,N/A,,Overcast,100,2012-11-07 00:13:00
7:34 PM,37.4,27.1,66,29.96,10.0,ESE,9.2,-,N/A,,Overcast,110,2012-11-07 00:34:00
7:53 PM,36.9,27.1,68,29.96,10.0,ESE,9.2,-,N/A,,Overcast,120,2012-11-07 00:53:00
8:13 PM,36.5,27.3,69,29.96,10.0,ESE,8.1,-,N/A,,Overcast,110,2012-11-07 01:13:00
8:33 PM,36.3,27.7,71,29.96,10.0,ESE,9.2,-,N/A,,Overcast,110,2012-11-07 01:33:00
8:53 PM,36.0,27.9,72,29.96,10.0,ESE,6.9,-,N/A,,Overcast,120,2012-11-07 01:53:00
9:13 PM,36.0,28.0,73,29.96,10.0,ESE,9.2,-,N/A,,Overcast,110,2012-11-07 02:13:00
9:33 PM,35.8,28.2,74,29.96,10.0,ESE,6.9,-,N/A,,Overcast,110,2012-11-07 02:33:00
9:54 PM,35.8,28.6,75,29.97,10.0,ESE,6.9,-,N/A,,Overcast,110,2012-11-07 02:54:00
10:14 PM,35.8,28.8,76,29.96,10.0,ESE,4.6,-,N/A,,Overcast,110,2012-11-07 03:14:00
10:34 PM,35.8,28.9,76,-9999,10.0,East,4.6,-,N/A,,Overcast,100,2012-11-07 03:34:00
10:53 PM,35.8,28.9,76,-9999,10.0,ESE,4.6,-,N/A,,Overcast,110,2012-11-07 03:53:00
11:14 PM,35.2,28.9,78,29.95,10.0,East,4.6,-,N/A,,Overcast,90,2012-11-07 04:14:00
11:34 PM,35.2,28.9,78,29.94,10.0,East,3.5,-,N/A,,Overcast,100,2012-11-07 04:34:00
11:53 PM,35.2,28.9,78,29.94,10.0,East,4.6,-,N/A,,Overcast,100,2012-11-07 04:53:00